Tracking 28081 objects as of 27-Sep-2023
HD Live streaming from Space Station
objects crossing your sky now

STARLINK-2631

Track STARLINK-2631 now!
10-day predictions
STARLINK-2631 is classified as:


NORAD ID: 48366
Int'l Code: 2021-038P
Perigee: 553.3 km
Apogee: 555.2 km
Inclination: 53.1 °
Period: 95.6 minutes
Semi major axis: 6925 km
RCS: Unknown
Launch date: May 4, 2021
Source: United States (US)
Launch site: AIR FORCE EASTERN TEST RANGE (AFETR)
Your satellite tracking list
Your tracking list is empty




NASA's NSSDC Master Catalog

Two Line Element Set (TLE):
1 48366U 21038P   23270.08830911  .00009265  00000-0  63965-3 0  9999
2 48366  53.0552  47.6404 0001392  86.9559 273.1589 15.06425183132917
Source of the keplerian elements: AFSPC